Date String (YYYY-MM-DD hh:mm:ss) UTC,Instrument flags,Ambient pressure (hPa),Sample flow (lpm),Bypass flow (lpm),Sample temperature (°C),Ambient temperature (°C),ASC tube jacket temperature (°C),LED temperature (°C),Box temperature (°C),Sample RH (%),Span deviation,Mass concentration (μg/m³),Mass concentration (μg/m³),Mass concentration (μg/m³)
DateTimeUTC,F1_M11,P_M11,Q1_M11,Q2_M11,T1_M11,T2_M11,T3_M11,T4_M11,T5_M11,U1_M11,ZSPAN_M11,X0_M11,X2_M11,X1_M11
2023-01-25 15:00:00,,0827.0,5.01,0.00,22.5,20.9,00.0,31.3,24.2,07.8,-001.9,0011.27,0007.22,0006.80
2023-01-25 15:01:00,,0826.9,5.00,0.00,22.5,20.9,00.0,31.3,24.2,07.9,-001.7,0011.04,0007.13,0006.73
2023-01-25 15:02:00,,0826.9,4.99,0.00,22.5,20.9,00.0,31.3,24.2,07.9,-001.4,0010.96,0007.09,0006.66
2023-01-25 15:03:00,,0826.9,5.00,0.00,22.5,20.8,00.0,31.3,24.2,07.9,-001.5,0010.81,0007.02,0006.60
2023-01-25 15:04:00,,0826.9,5.01,0.00,22.5,20.8,00.0,31.3,24.2,07.9,-001.2,0010.65,0006.97,0006.58
2023-01-25 15:05:00,,0826.9,5.00,0.00,22.5,21.5,00.0,31.3,24.3,07.8,-001.1,0010.56,0006.93,0006.56
2023-01-25 15:06:00,,0826.9,5.00,0.00,22.6,22.5,00.0,31.3,24.5,07.6,-001.2,0010.33,0006.73,0006.37
2023-01-25 15:07:00,,0826.9,4.99,0.00,22.7,22.6,00.0,31.3,24.6,07.6,-001.1,0009.99,0006.43,0006.08
2023-01-25 15:08:00,,0826.9,4.98,0.00,22.7,22.2,00.0,31.4,24.6,07.7,-000.6,0009.54,0006.13,0005.81
2023-01-25 15:09:00,,0826.9,5.00,0.00,22.7,21.9,00.0,31.4,24.5,07.9,-000.5,0009.12,0005.85,0005.58
2023-01-25 15:10:00,,0826.9,5.00,0.00,22.7,21.6,00.0,31.4,24.4,07.7,-000.6,0008.30,0005.45,0005.22
2023-01-25 15:11:00,,0827.2,5.01,0.00,22.6,21.4,00.0,31.4,24.3,07.7,-000.7,0007.84,0005.07,0004.84
2023-01-25 15:12:00,,0827.1,5.00,0.00,22.6,21.2,00.0,31.4,24.3,07.7,-001.2,0007.20,0004.64,0004.45
2023-01-25 15:13:00,,0827.0,4.99,0.00,22.6,21.1,00.0,31.4,24.3,07.7,-001.8,0006.20,0004.18,0004.03
2023-01-25 15:14:00,,0827.0,5.02,0.00,22.6,21.0,00.0,31.4,24.3,07.9,-001.7,0005.37,0003.81,0003.70
2023-01-25 15:15:00,,0827.3,5.02,0.00,22.6,20.9,00.0,31.3,24.3,07.9,-000.7,0004.53,0003.43,0003.32
2023-01-25 15:16:00,,0827.1,5.00,0.00,22.5,20.9,00.0,31.3,24.2,07.8,0000.0,0003.70,0003.02,0002.89
2023-01-25 15:17:00,,0827.1,5.00,0.00,22.5,21.0,00.0,31.3,24.2,07.9,0000.0,0003.25,0002.71,0002.58
2023-01-25 15:18:00,,0827.2,5.01,0.00,22.6,21.9,00.0,31.3,24.4,07.9,0000.0,0003.48,0002.80,0002.64
2023-01-25 15:19:00,,0827.2,4.99,0.00,22.7,22.8,00.0,31.3,24.6,08.0,0000.0,0003.76,0002.96,0002.75
2023-01-25 15:20:00,,0827.2,4.99,0.00,22.7,22.6,00.0,31.4,24.7,07.8,0000.0,0004.08,0002.95,0002.72
2023-01-25 15:21:00,,0827.2,4.99,0.00,22.7,22.2,00.0,31.4,24.6,07.8,0000.0,0004.94,0003.13,0002.89
2023-01-25 15:22:00,,0827.2,5.02,0.00,22.7,21.9,00.0,31.4,24.5,07.9,-001.3,0005.35,0003.29,0003.11
2023-01-25 15:23:00,,0827.2,4.99,0.00,22.7,21.6,00.0,31.4,24.5,07.9,-001.7,0005.79,0003.46,0003.26
2023-01-25 15:24:00,,0827.2,4.98,0.00,22.7,21.4,00.0,31.4,24.4,07.9,-001.4,0006.37,0003.61,0003.40
2023-01-25 15:25:00,,0827.3,5.00,0.00,22.7,21.2,00.0,31.4,24.4,08.1,-001.2,0007.61,0003.74,0003.51
2023-01-25 15:26:00,,0827.3,5.03,0.00,22.6,21.1,00.0,31.4,24.4,08.1,-001.5,0007.78,0003.86,0003.62
2023-01-25 15:27:00,,0827.3,5.01,0.00,22.6,21.0,00.0,31.4,24.4,08.1,-001.8,0007.77,0003.85,0003.61
2023-01-25 15:28:00,,0827.3,5.00,0.00,22.6,20.9,00.0,31.4,24.3,08.1,-001.1,0007.83,0003.77,0003.53
2023-01-25 15:29:00,,0827.4,4.99,0.00,22.6,20.8,00.0,31.4,24.3,08.1,0000.0,0007.88,0003.66,0003.42
2023-01-25 15:30:00,,0827.4,5.00,0.00,22.6,20.8,00.0,31.4,24.3,08.3,0000.0,0007.76,0003.55,0003.32
2023-01-25 15:31:00,,0827.4,4.99,0.00,22.5,20.8,00.0,31.4,24.2,08.5,0000.0,0007.53,0003.44,0003.22
2023-01-25 15:32:00,,0827.4,5.02,0.00,22.5,20.8,00.0,31.3,24.2,08.5,0000.0,0006.77,0003.32,0003.09
2023-01-25 15:33:00,,0827.5,5.00,0.00,22.5,20.9,00.0,31.3,24.2,08.5,0000.0,0006.23,0003.13,0002.83
2023-01-25 15:34:00,,0827.4,5.00,0.00,22.6,21.9,00.0,31.3,24.4,08.2,0000.0,0005.79,0002.83,0002.54
2023-01-25 15:35:00,,0827.4,5.01,0.00,22.7,22.7,00.0,31.3,24.6,08.3,0000.0,0005.47,0002.61,0002.32
2023-01-25 15:36:00,,0827.4,4.99,0.00,22.7,22.6,00.0,31.4,24.7,08.4,0000.0,0003.90,0002.41,0002.10
2023-01-25 15:37:00,,0827.4,4.99,0.00,22.7,22.2,00.0,31.4,24.6,08.4,0000.0,0003.63,0002.22,0001.93
2023-01-25 15:38:00,,0827.4,5.01,0.00,22.7,21.9,00.0,31.4,24.5,08.4,0000.0,0003.55,0002.15,0001.87
2023-01-25 15:39:00,,0827.4,5.01,0.00,22.7,21.6,00.0,31.4,24.5,08.5,0000.0,0003.43,0002.17,0001.88
2023-01-25 15:40:00,,0827.5,5.01,0.00,22.7,21.3,00.0,31.4,24.4,08.8,0000.0,0003.02,0002.19,0001.92
2023-01-25 15:41:00,,0827.5,4.99,0.00,22.6,21.1,00.0,31.4,24.3,09.0,0000.0,0002.94,0002.17,0001.93
2023-01-25 15:42:00,,0827.5,5.00,0.00,22.6,20.9,00.0,31.4,24.2,09.2,0000.0,0003.18,0002.40,0002.13
2023-01-25 15:43:00,,0827.5,5.00,0.00,22.6,20.8,00.0,31.4,24.2,09.3,0000.0,0003.57,0002.68,0002.39
2023-01-25 15:44:00,,0827.6,4.99,0.00,22.5,20.9,00.0,31.4,24.2,09.3,0000.0,0004.05,0002.99,0002.67
2023-01-25 15:45:00,,0827.5,5.01,0.00,22.6,21.6,00.0,31.4,24.3,09.3,0000.0,0004.37,0003.18,0002.90
2023-01-25 15:46:00,,0827.5,5.01,0.00,22.7,22.6,00.0,31.4,24.6,09.3,0000.0,0005.07,0003.29,0003.08
2023-01-25 15:47:00,,0827.5,4.99,0.00,22.7,22.6,00.0,31.4,24.6,09.2,-000.7,0005.43,0003.42,0003.24
2023-01-25 15:48:00,,0827.6,5.00,0.00,22.7,22.2,00.0,31.4,24.6,09.2,-001.2,0006.13,0003.55,0003.35
2023-01-25 15:49:00,,0827.5,5.01,0.00,22.7,21.8,00.0,31.4,24.5,09.3,-001.2,0006.50,0003.65,0003.43
2023-01-25 15:50:00,,0827.5,5.00,0.00,22.7,21.5,00.0,31.4,24.4,09.3,-001.0,0006.56,0003.71,0003.50
2023-01-25 15:51:00,,0827.5,4.99,0.00,22.6,21.3,00.0,31.4,24.3,09.2,-001.1,0006.55,0003.72,0003.52
2023-01-25 15:52:00,,0827.5,5.02,0.00,22.6,21.1,00.0,31.4,24.3,09.2,-000.8,0006.31,0003.64,0003.45
2023-01-25 15:53:00,,0827.6,5.00,0.00,22.6,20.9,00.0,31.4,24.2,09.4,-001.5,0006.17,0003.58,0003.37
2023-01-25 15:54:00,,0827.5,5.01,0.00,22.5,20.7,00.0,31.4,24.2,09.4,-002.2,0005.99,0003.50,0003.31
2023-01-25 15:55:00,,0827.5,5.00,0.00,22.5,20.7,00.0,31.4,24.1,09.3,0000.0,0005.84,0003.46,0003.25
2023-01-25 15:56:00,,0827.5,5.01,0.00,22.5,21.3,00.0,31.3,24.2,09.4,0000.0,0005.79,0003.44,0003.24
2023-01-25 15:57:00,,0827.6,4.99,0.00,22.6,22.4,00.0,31.4,24.5,09.3,-001.7,0005.38,0003.44,0003.24
2023-01-25 15:58:00,,0827.6,4.99,0.00,22.7,22.7,00.0,31.4,24.6,09.2,-001.1,0005.85,0003.42,0003.22
2023-01-25 15:59:00,,0827.5,4.98,0.00,22.7,22.4,00.0,31.4,24.6,09.3,0000.0,0006.40,0003.43,0003.22
